• Em Portugal
  • Lista de países
  • Para 7 dias
  • Temperatura da água
  • Mapas de satélite
  • Mapa do tempo
  • Widgets de tempo
  • user-avatar
    Iniciar Sessão

    Previsão horária em Pacenki

    Hoje, 16 Novembro, Sexta-feira

    Tempo Temperatura Precipitação Vento Pressão Humidade
    00:00 0°C° 0 mm 1 m/s 761 mmHg 90%
    01:00 0°C° 0 mm 1 m/s 762 mmHg 89%
    02:00 -1°C° 0 mm 1 m/s 762 mmHg 84%
    03:00 -2°C° 0 mm 1 m/s 762 mmHg 84%
    04:00 -2°C° 0 mm 1 m/s 763 mmHg 83%
    05:00 -2°C° 0 mm 1 m/s 763 mmHg 82%
    06:00 -2°C° 0 mm 1 m/s 763 mmHg 81%
    07:00 -5°C° 0 mm 2 m/s 763 mmHg 79%
    08:00 -5°C° 0 mm 2 m/s 764 mmHg 78%
    09:00 -4°C° 0 mm 2 m/s 764 mmHg 75%
    10:00 0°C° 0 mm 1 m/s 764 mmHg 71%
    11:00 +1°C° 0 mm 1 m/s 764 mmHg 67%
    12:00 +1°C° 0 mm 1 m/s 764 mmHg 69%
    13:00 +1°C° 0 mm 1 m/s 765 mmHg 71%
    14:00 +2°C° 0 mm 1 m/s 765 mmHg 72%
    15:00 +1°C° 0 mm 1 m/s 765 mmHg 72%
    16:00 0°C° 0 mm 1 m/s 765 mmHg 73%
    17:00 -2°C° 0 mm 1 m/s 765 mmHg 73%
    18:00 -2°C° 0 mm 1 m/s 765 mmHg 72%
    19:00 -2°C° 0 mm 1 m/s 765 mmHg 71%
    20:00 -2°C° 0 mm 1 m/s 765 mmHg 69%
    21:00 -2°C° 0 mm 1 m/s 765 mmHg 68%
    22:00 -2°C° 0 mm 1 m/s 765 mmHg 66%
    23:00 -2°C° 0 mm 1 m/s 765 mmHg 65%

    Amanhã, 17 Novembro, Sábado

    Tempo Temperatura Precipitação Vento Pressão Humidade
    00:00 -3°C° 0 mm 1 m/s 765 mmHg 63%
    01:00 -3°C° 0 mm 1 m/s 765 mmHg 61%
    02:00 -4°C° 0 mm 0 m/s 765 mmHg 60%
    03:00 -4°C° 0 mm 0 m/s 764 mmHg 59%
    04:00 -4°C° 0 mm 0 m/s 764 mmHg 59%
    05:00 -3°C° 0 mm 1 m/s 764 mmHg 58%
    06:00 -3°C° 0 mm 1 m/s 764 mmHg 58%
    07:00 -3°C° 0 mm 1 m/s 764 mmHg 59%
    08:00 -3°C° 0 mm 1 m/s 763 mmHg 59%
    09:00 -2°C° 0 mm 1 m/s 763 mmHg 59%
    10:00 -1°C° 0 mm 1 m/s 763 mmHg 58%
    11:00 +1°C° 0 mm 1 m/s 762 mmHg 58%
    12:00 -1°C° 0 mm 2 m/s 762 mmHg 61%
    13:00 -1°C° 0 mm 2 m/s 761 mmHg 63%
    14:00 -1°C° 0 mm 2 m/s 760 mmHg 66%
    15:00 -1°C° 0 mm 2 m/s 760 mmHg 67%
    16:00 -2°C° 0 mm 3 m/s 759 mmHg 69%
    17:00 -2°C° 0 mm 3 m/s 758 mmHg 71%
    18:00 -2°C° 0 mm 3 m/s 758 mmHg 72%
    19:00 -2°C° 0 mm 3 m/s 757 mmHg 74%
    20:00 -2°C° 0 mm 3 m/s 756 mmHg 75%
    21:00 -3°C° 0 mm 4 m/s 756 mmHg 79%
    22:00 -3°C° 0 mm 4 m/s 755 mmHg 83%
    23:00 -3°C° 0 mm 4 m/s 754 mmHg 87%

    Depois de amanhã, 18 Novembro, Domingo

    Tempo Temperatura Precipitação Vento Pressão Humidade
    00:00 -3°C° 0 mm 4 m/s 753 mmHg 89%
    01:00 -3°C° 0 mm 4 m/s 752 mmHg 91%
    02:00 -2°C° 0 mm 4 m/s 752 mmHg 93%
    03:00 -2°C° 0.1 mm 4 m/s 751 mmHg 94%
    04:00 -2°C° 0.1 mm 4 m/s 750 mmHg 95%
    05:00 -1°C° 0.1 mm 4 m/s 749 mmHg 96%
    06:00 -1°C° 0.1 mm 4 m/s 748 mmHg 96%
    07:00 -1°C° 0.1 mm 4 m/s 748 mmHg 96%
    08:00 0°C° 0.1 mm 3 m/s 747 mmHg 97%
    09:00 0°C° 0.2 mm 3 m/s 747 mmHg 97%
    10:00 +1°C° 0.2 mm 3 m/s 747 mmHg 98%
    11:00 +1°C° 0.2 mm 3 m/s 747 mmHg 98%
    12:00 +2°C° 0.1 mm 2 m/s 747 mmHg 98%
    13:00 +2°C° 0.1 mm 2 m/s 746 mmHg 98%
    14:00 +2°C° 0.1 mm 2 m/s 746 mmHg 99%
    15:00 +2°C° 0.1 mm 2 m/s 746 mmHg 98%
    16:00 +2°C° 0.1 mm 2 m/s 746 mmHg 98%
    17:00 +1°C° 0.1 mm 2 m/s 746 mmHg 98%
    18:00 +1°C° 0.2 mm 2 m/s 746 mmHg 98%
    19:00 +1°C° 0.2 mm 2 m/s 746 mmHg 97%
    20:00 +1°C° 0.2 mm 2 m/s 747 mmHg 97%
    21:00 +1°C° 0.2 mm 2 m/s 747 mmHg 97%
    22:00 0°C° 0.2 mm 3 m/s 747 mmHg 96%
    23:00 0°C° 0.2 mm 3 m/s 747 mmHg 96%

    19 Novembro, Segunda-feira

    Tempo Temperatura Precipitação Vento Pressão Humidade
    00:00 0°C° 0.1 mm 3 m/s 748 mmHg 96%
    01:00 0°C° 0.1 mm 3 m/s 748 mmHg 96%
    02:00 0°C° 0.1 mm 3 m/s 748 mmHg 96%
    03:00 0°C° 0.1 mm 3 m/s 748 mmHg 96%
    04:00 0°C° 0.1 mm 3 m/s 748 mmHg 96%
    05:00 0°C° 0.1 mm 3 m/s 748 mmHg 96%
    06:00 0°C° 0.1 mm 3 m/s 749 mmHg 96%
    07:00 0°C° 0.1 mm 3 m/s 749 mmHg 96%
    08:00 0°C° 0.1 mm 3 m/s 749 mmHg 96%
    09:00 0°C° 0 mm 3 m/s 750 mmHg 95%
    10:00 0°C° 0 mm 3 m/s 750 mmHg 95%
    11:00 0°C° 0 mm 3 m/s 751 mmHg 94%
    12:00 0°C° 0.1 mm 3 m/s 751 mmHg 94%
    13:00 0°C° 0.1 mm 3 m/s 751 mmHg 94%
    14:00 0°C° 0.1 mm 3 m/s 751 mmHg 93%
    15:00 0°C° 0 mm 3 m/s 751 mmHg 94%
    16:00 -1°C° 0 mm 3 m/s 752 mmHg 94%
    17:00 -1°C° 0 mm 3 m/s 752 mmHg 94%
    18:00 -1°C° 0 mm 3 m/s 752 mmHg 94%
    19:00 -1°C° 0 mm 3 m/s 753 mmHg 93%
    20:00 -2°C° 0 mm 4 m/s 753 mmHg 92%
    21:00 -2°C° 0 mm 3 m/s 753 mmHg 91%
    22:00 -4°C° 0 mm 3 m/s 754 mmHg 90%
    23:00 -4°C° 0 mm 3 m/s 754 mmHg 89%

    20 Novembro, Terça-feira

    Tempo Temperatura Precipitação Vento Pressão Humidade
    00:00 -5°C° 0 mm 3 m/s 754 mmHg 88%
    01:00 -5°C° 0 mm 3 m/s 754 mmHg 87%
    02:00 -5°C° 0 mm 3 m/s 754 mmHg 85%
    03:00 -5°C° 0 mm 4 m/s 754 mmHg 86%
    04:00 -4°C° 0 mm 4 m/s 754 mmHg 87%
    05:00 -4°C° 0 mm 4 m/s 754 mmHg 88%
    06:00 -4°C° 0.1 mm 4 m/s 754 mmHg 87%
    07:00 -4°C° 0.1 mm 4 m/s 754 mmHg 87%
    08:00 -4°C° 0.1 mm 4 m/s 754 mmHg 87%
    09:00 -3°C° 0 mm 4 m/s 754 mmHg 84%
    10:00 -3°C° 0 mm 4 m/s 754 mmHg 81%
    11:00 -2°C° 0 mm 4 m/s 754 mmHg 78%
    12:00 -2°C° 0 mm 4 m/s 753 mmHg 77%
    13:00 -2°C° 0 mm 4 m/s 753 mmHg 75%
    14:00 -2°C° 0 mm 4 m/s 753 mmHg 74%
    15:00 -3°C° 0 mm 4 m/s 753 mmHg 76%
    16:00 -3°C° 0 mm 4 m/s 753 mmHg 78%
    17:00 -4°C° 0 mm 3 m/s 753 mmHg 80%
    18:00 -4°C° 0 mm 3 m/s 752 mmHg 83%
    19:00 -4°C° 0 mm 3 m/s 752 mmHg 86%
    20:00 -4°C° 0 mm 3 m/s 752 mmHg 89%
    21:00 -4°C° 0 mm 3 m/s 752 mmHg 90%
    22:00 -4°C° 0 mm 3 m/s 752 mmHg 90%
    23:00 -2°C° 0 mm 3 m/s 752 mmHg 91%

    21 Novembro, Quarta-feira

    Tempo Temperatura Precipitação Vento Pressão Humidade
    00:00 -2°C° 0 mm 3 m/s 752 mmHg 91%
    01:00 -4°C° 0 mm 3 m/s 751 mmHg 91%
    02:00 -4°C° 0 mm 3 m/s 751 mmHg 91%
    03:00 -4°C° 0 mm 3 m/s 751 mmHg 91%
    04:00 -4°C° 0 mm 3 m/s 751 mmHg 91%
    05:00 -5°C° 0 mm 3 m/s 750 mmHg 91%
    06:00 -5°C° 0 mm 4 m/s 750 mmHg 90%
    07:00 -5°C° 0 mm 4 m/s 750 mmHg 89%
    08:00 -5°C° 0 mm 4 m/s 750 mmHg 87%
    09:00 -4°C° 0 mm 4 m/s 749 mmHg 85%
    10:00 -5°C° 0 mm 5 m/s 749 mmHg 82%
    11:00 -4°C° 0 mm 5 m/s 749 mmHg 80%
    12:00 -4°C° 0 mm 5 m/s 748 mmHg 80%
    13:00 -4°C° 0 mm 5 m/s 748 mmHg 80%
    14:00 -4°C° 0 mm 5 m/s 747 mmHg 80%
    15:00 -4°C° 0 mm 6 m/s 747 mmHg 81%
    16:00 -4°C° 0 mm 6 m/s 747 mmHg 82%
    17:00 -5°C° 0 mm 6 m/s 746 mmHg 83%
    18:00 -5°C° 0 mm 6 m/s 746 mmHg 83%
    19:00 -5°C° 0 mm 6 m/s 746 mmHg 82%
    20:00 -5°C° 0 mm 6 m/s 746 mmHg 82%
    21:00 -5°C° 0 mm 6 m/s 745 mmHg 81%
    22:00 -5°C° 0 mm 6 m/s 745 mmHg 81%
    23:00 -5°C° 0 mm 6 m/s 745 mmHg 80%
    Mostrar mais